ARIANE 1 DEB, 48346

Orbit data source: Space-Track

ARIANE 1 DEB, 48346 is space debris in HEO originally from a launch on Wed, 19 Oct 1983 UTC launched from the French Guiana (FRGUI). Debris objects in space refer to the collection of defunct objects orbiting the Earth. Examples of debris include non-operational satellites, rocket bodies, and fragments generated from explosions, collisions, or faulty payload assembly.

Loading next visibility...
Identifier
48346, 1983-105C
Orbit
HEO
Country
Flag of FRFR
Related business
Manufacturer
Unknown
Mission
Spacecraft
Bus & Motor
Unknown
Mass
Unknown
Launch date (UTC)
1983-10-19 (43 years ago)
Launch vehicle
Unknown
Launch site
French Guiana (FRGUI)
Object type
Payload
Rocket body
Debris
Shape & HBR
Unknown shape, 0.1 m
Radar Cross Section
Medium (>0.1 m² and <1 m²)

Expand to show TLE details & history
Last TLE update: 1 year ago

TLE from 1 year ago
0 ARIANE 1 DEB
1 48346U 83105C   25084.31200152  .00001106  00000-0  41815-2 0  9994
2 48346   8.2419 197.1948 5888147 142.7479 214.1896  3.97818702164350
Epoch: 2025-03-25T07:29Z
TLE epoch observation values (Epoch: 2025-03-25T07:29:16.931Z)
Latitude
-3.62093°
Longitude
-124.03057°
Altitude
19,656.102 km
Speed
2.633 km/s
True Right ascension
11h 25m 13s
True Declination
-3° 36' 54"
Sunlit
Object was in full shadow at epoch
Visualization orbit readout
Latitude
Unknown
Longitude
Unknown
Altitude
Unknown
Speed
Unknown
Apparent Right ascension
Unknown
Apparent Declination
Unknown
Sunlit
N/A
Visualization observer readout
Local Sidereal Time
21:26:10
Azimuth
Unknown
Elevation
Unknown
Doppler factor
Unknown
Orbital elements
Apogee altitude
20,360.705 km
Perigee altitude
541.876 km
Semi-major axis
16,829.427 km
Eccentricity
0.58881
Inclination
8.2419°
RAAN
197.1948°
Arg. of periapsis
142.7479°
True anomaly
191.14325°
Mean anomaly
214.1896°
Eccentric anomaly
201.71009°
Mean motion
0.99412 °/min
Orbital period
362.13 mins
BSTAR
0.0041815
Loading maneuver chart data...
Computing Atmospheric mass density...
Loading historical data...
Loading historical data...
Loading historical data...
Loading historical data...
Loading historical data...
Loading historical data...
Loading historical data...
Other satellites on launch #105 in the year 1983 (1983-10-19 UTC)

Documentation

Showing up to 5 results
|